Overview Statistics Trail Chart Weather Telemetry Raw packets
 

This is the latest recevied weather packets stored in our database for station/object K7DC. If no packets are shown the sender has not sent any weather packets the latest 10 day(s).

<< 63 64 65 66 67 68 69 >>
Time Temp. Humidity Pressure Rain* Wind** Luminosity Snow
1788196198 23.89° C 70% 1019.5 hPa 0 mm - 61 W/m² -
1788195894 24.44° C 69% 1019.4 hPa 0 mm - 127 W/m² -
1788195591 25° C 67% 1019.2 hPa 0 mm - 142 W/m² -
1788195286 25° C 66% 1019.2 hPa 0 mm - 184 W/m² -
1788194983 25° C 67% 1019 hPa 0 mm - 316 W/m² -
1788194678 25.56° C 69% 1019 hPa 0 mm - 237 W/m² -
1788194373 26.11° C 67% 1018.6 hPa 0 mm - 206 W/m² -
1788194068 26.11° C 61% 1018.9 hPa 0 mm - 157 W/m² -
1788193767 26.67° C 56% 1018.6 hPa 0 mm - 95 W/m² -
1788193463 27.78° C 56% 1018.5 hPa 0 mm - 82 W/m² -
1788193161 27.78° C 54% 1018.4 hPa 0 mm - 103 W/m² -
1788192858 27.78° C 55% 1018.1 hPa 0 mm - 144 W/m² -
1788192553 27.78° C 54% 1018 hPa 0 mm - 130 W/m² -
1788192248 27.22° C 56% 1017.8 hPa 0 mm - 230 W/m² -
1788191943 26.67° C 57% 1017.6 hPa 0 mm - 243 W/m² -
1788191643 26.67° C 59% 1017.8 hPa 0 mm - 215 W/m² -
1788191338 26.67° C 58% 1017.6 hPa 0 mm - 170 W/m² -
1788191035 26.67° C 60% 1017.6 hPa 0 mm - 153 W/m² -
1788190733 26.67° C 59% 1017.6 hPa 0 mm - 240 W/m² -
1788190429 25.56° C 61% 1017.4 hPa 0 mm - 237 W/m² -
1788190125 25.56° C 62% 1017.3 hPa 0 mm - 151 W/m² -
1788189821 25.56° C 63% 1017.3 hPa 0 mm - 194 W/m² -
1788189521 26.67° C 60% 1017.6 hPa 0 mm - 233 W/m² -
1788189219 26.11° C 61% 1017.7 hPa 0 mm - 174 W/m² -
1788188915 26.11° C 62% 1017.7 hPa 0 mm - 268 W/m² -

* Rain latest hour (hover to see other rain measurements)
** Current wind speed in m/s (hover to see current wind gust speed)